Location: Zilina
(0.0000°N, 18.7333°E)
Time: 12:58:36
(UTC+02:00)

CZ-2C R/B - Pass Details

Date: 19 February 2019
Orbit: 639 x 705 km, 98.4° (Epoch: 19 October)

Event Time Altitude Azimuth Distance (km) Brightness Sun altitude
Rises 18:13:52 0° 11° (N) 2,961 6.8 -3.7°
Reaches altitude 10° 18:16:03 10° 10° (N) 2,062 6.0 -4.2°
Maximum altitude 18:20:34 85° 281° (W) 673 3.8 -5.3°
Drops below altitude 10° 18:25:11 10° 194° (SSW) 2,113 6.6 -6.4°
Sets 18:27:26 0° 193° (SSW) 3,040 7.5 -7.0°
